Hourly Weather Valparaiso

Today, 15 April, Thursday

Time Temperature Precipitation Wind Pressure Humidity
00:00 +14°C° 0 mm 3 mps 755 mmHg 85%
01:00 +14°C° 0 mm 3 mps 754 mmHg 87%
02:00 +14°C° 0 mm 3 mps 754 mmHg 87%
03:00 +13°C° 0 mm 3 mps 754 mmHg 86%
04:00 +13°C° 0 mm 3 mps 754 mmHg 86%
05:00 +15°C° 0 mm 2 mps 754 mmHg 82%
06:00 +16°C° 0 mm 2 mps 754 mmHg 79%
07:00 +16°C° 0 mm 2 mps 754 mmHg 75%
08:00 +19°C° 0 mm 2 mps 754 mmHg 66%
09:00 +21°C° 0 mm 3 mps 754 mmHg 56%
10:00 +25°C° 0 mm 3 mps 754 mmHg 46%
11:00 +25°C° 0 mm 4 mps 754 mmHg 44%
12:00 +26°C° 0 mm 5 mps 754 mmHg 43%
13:00 +27°C° 0 mm 5 mps 753 mmHg 41%
14:00 +26°C° 0 mm 5 mps 753 mmHg 41%
15:00 +26°C° 0 mm 5 mps 753 mmHg 40%
16:00 +26°C° 0 mm 5 mps 753 mmHg 40%
17:00 +22°C° 0 mm 4 mps 754 mmHg 47%
18:00 +20°C° 0 mm 4 mps 754 mmHg 54%
19:00 +18°C° 0 mm 4 mps 755 mmHg 61%
20:00 +17°C° 0 mm 4 mps 755 mmHg 62%
21:00 +17°C° 0 mm 4 mps 755 mmHg 64%
22:00 +17°C° 0 mm 4 mps 754 mmHg 66%
23:00 +15°C° 0 mm 4 mps 754 mmHg 67%

Tomorrow, 16 April, Friday

Time Temperature Precipitation Wind Pressure Humidity
00:00 +15°C° 0 mm 4 mps 754 mmHg 68%
01:00 +15°C° 0 mm 4 mps 754 mmHg 69%
02:00 +14°C° 0 mm 4 mps 754 mmHg 69%
03:00 +14°C° 0 mm 4 mps 754 mmHg 70%
04:00 +14°C° 0 mm 3 mps 754 mmHg 70%
05:00 +14°C° 0 mm 3 mps 754 mmHg 69%
06:00 +16°C° 0 mm 3 mps 754 mmHg 67%
07:00 +16°C° 0 mm 3 mps 754 mmHg 65%
08:00 +19°C° 0 mm 4 mps 754 mmHg 58%
09:00 +21°C° 0 mm 4 mps 754 mmHg 50%
10:00 +23°C° 0 mm 4 mps 755 mmHg 42%
11:00 +25°C° 0 mm 4 mps 754 mmHg 41%
12:00 +26°C° 0 mm 5 mps 754 mmHg 41%
13:00 +26°C° 0 mm 5 mps 754 mmHg 41%
14:00 +25°C° 0 mm 5 mps 754 mmHg 46%
15:00 +23°C° 0 mm 4 mps 754 mmHg 51%
16:00 +21°C° 0 mm 4 mps 754 mmHg 56%
17:00 +20°C° 0 mm 3 mps 754 mmHg 65%
18:00 +18°C° 0 mm 3 mps 755 mmHg 74%
19:00 +16°C° 0 mm 2 mps 755 mmHg 83%
20:00 +16°C° 0 mm 2 mps 755 mmHg 83%
21:00 +16°C° 0 mm 1 mps 756 mmHg 84%
22:00 +16°C° 0 mm 1 mps 756 mmHg 84%
23:00 +15°C° 0 mm 1 mps 756 mmHg 87%

Day after tomorrow, 17 April, Saturday

Time Temperature Precipitation Wind Pressure Humidity
00:00 +15°C° 0 mm 1 mps 756 mmHg 90%
01:00 +14°C° 0 mm 2 mps 756 mmHg 92%
02:00 +14°C° 0 mm 1 mps 756 mmHg 92%
03:00 +14°C° 0 mm 1 mps 756 mmHg 92%
04:00 +14°C° 0 mm 1 mps 756 mmHg 92%
05:00 +14°C° 0 mm 1 mps 756 mmHg 88%
06:00 +15°C° 0 mm 1 mps 756 mmHg 83%
07:00 +15°C° 0 mm 1 mps 757 mmHg 79%
08:00 +19°C° 0 mm 1 mps 757 mmHg 69%
09:00 +20°C° 0 mm 2 mps 756 mmHg 58%
10:00 +22°C° 0 mm 3 mps 756 mmHg 48%
11:00 +24°C° 0 mm 3 mps 756 mmHg 47%
12:00 +23°C° 0 mm 4 mps 756 mmHg 45%
13:00 +25°C° 0 mm 4 mps 755 mmHg 44%
14:00 +23°C° 0 mm 4 mps 755 mmHg 47%
15:00 +22°C° 0 mm 4 mps 755 mmHg 51%
16:00 +21°C° 0 mm 4 mps 755 mmHg 54%
17:00 +19°C° 0 mm 4 mps 755 mmHg 61%
18:00 +18°C° 0 mm 3 mps 756 mmHg 68%
19:00 +16°C° 0 mm 3 mps 756 mmHg 76%
20:00 +16°C° 0 mm 2 mps 756 mmHg 76%
21:00 +15°C° 0 mm 2 mps 756 mmHg 76%
22:00 +15°C° 0 mm 2 mps 756 mmHg 76%
23:00 +15°C° 0 mm 2 mps 756 mmHg 74%

18 April, Sunday

Time Temperature Precipitation Wind Pressure Humidity
00:00 +15°C° 0 mm 2 mps 755 mmHg 73%
01:00 +15°C° 0 mm 1 mps 755 mmHg 71%
02:00 +14°C° 0 mm 2 mps 755 mmHg 71%
03:00 +14°C° 0 mm 2 mps 755 mmHg 71%
04:00 +14°C° 0 mm 2 mps 755 mmHg 71%
05:00 +15°C° 0 mm 2 mps 755 mmHg 68%
06:00 +15°C° 0 mm 2 mps 755 mmHg 64%
07:00 +16°C° 0 mm 2 mps 755 mmHg 61%
08:00 +18°C° 0 mm 2 mps 755 mmHg 53%
09:00 +21°C° 0 mm 2 mps 755 mmHg 45%
10:00 +24°C° 0 mm 2 mps 755 mmHg 38%
11:00 +25°C° 0 mm 3 mps 755 mmHg 38%
12:00 +25°C° 0 mm 4 mps 755 mmHg 38%
13:00 +25°C° 0 mm 4 mps 754 mmHg 38%
14:00 +23°C° 0 mm 4 mps 755 mmHg 42%
15:00 +22°C° 0 mm 3 mps 755 mmHg 45%
16:00 +21°C° 0 mm 3 mps 755 mmHg 48%
17:00 +19°C° 0 mm 3 mps 755 mmHg 53%
18:00 +18°C° 0 mm 3 mps 756 mmHg 58%
19:00 +17°C° 0 mm 2 mps 756 mmHg 63%
20:00 +16°C° 0 mm 2 mps 756 mmHg 63%
21:00 +15°C° 0 mm 2 mps 756 mmHg 62%
22:00 +15°C° 0 mm 1 mps 757 mmHg 62%
23:00 +15°C° 0 mm 1 mps 757 mmHg 60%

19 April, Monday

Time Temperature Precipitation Wind Pressure Humidity
00:00 +14°C° 0 mm 1 mps 756 mmHg 58%
01:00 +14°C° 0 mm 1 mps 756 mmHg 55%
02:00 +14°C° 0 mm 2 mps 756 mmHg 53%
03:00 +14°C° 0 mm 2 mps 756 mmHg 50%
04:00 +14°C° 0 mm 2 mps 756 mmHg 47%
05:00 +15°C° 0 mm 2 mps 756 mmHg 45%
06:00 +15°C° 0 mm 1 mps 756 mmHg 43%
07:00 +16°C° 0 mm 1 mps 756 mmHg 41%
08:00 +19°C° 0 mm 1 mps 756 mmHg 37%
09:00 +20°C° 0 mm 2 mps 757 mmHg 32%
10:00 +23°C° 0 mm 2 mps 757 mmHg 28%
11:00 +24°C° 0 mm 3 mps 757 mmHg 30%
12:00 +25°C° 0 mm 3 mps 757 mmHg 31%
13:00 +25°C° 0 mm 4 mps 757 mmHg 33%
14:00 +25°C° 0 mm 4 mps 756 mmHg 36%
15:00 +23°C° 0 mm 4 mps 756 mmHg 40%
16:00 +23°C° 0 mm 4 mps 756 mmHg 43%
17:00 +21°C° 0 mm 4 mps 756 mmHg 54%
18:00 +19°C° 0 mm 4 mps 756 mmHg 65%
19:00 +17°C° 0 mm 3 mps 757 mmHg 76%
20:00 +18°C° 0 mm 3 mps 756 mmHg 74%
21:00 +18°C° 0 mm 3 mps 756 mmHg 72%
22:00 +18°C° 0 mm 3 mps 756 mmHg 70%
23:00 +18°C° 0 mm 4 mps 756 mmHg 72%

20 April, Tuesday

Time Temperature Precipitation Wind Pressure Humidity
00:00 +17°C° 0 mm 4 mps 756 mmHg 74%
01:00 +17°C° 0 mm 4 mps 756 mmHg 76%
02:00 +17°C° 0 mm 4 mps 755 mmHg 76%
03:00 +17°C° 0 mm 4 mps 755 mmHg 76%
04:00 +17°C° 0 mm 4 mps 755 mmHg 75%
05:00 +17°C° 0 mm 4 mps 755 mmHg 73%
06:00 +17°C° 0 mm 4 mps 755 mmHg 70%
07:00 +17°C° 0 mm 4 mps 755 mmHg 68%
08:00 +19°C° 0 mm 4 mps 755 mmHg 57%
09:00 +22°C° 0 mm 4 mps 755 mmHg 46%
10:00 +25°C° 0 mm 4 mps 755 mmHg 35%
11:00 +25°C° 0 mm 5 mps 754 mmHg 35%
12:00 +26°C° 0 mm 6 mps 754 mmHg 35%
13:00 +27°C° 0 mm 7 mps 754 mmHg 35%
14:00 +24°C° 0 mm 6 mps 754 mmHg 39%
15:00 +23°C° 0 mm 6 mps 754 mmHg 44%
16:00 +22°C° 0 mm 6 mps 754 mmHg 49%
17:00 +21°C° 0 mm 5 mps 754 mmHg 55%
18:00 +20°C° 0 mm 4 mps 754 mmHg 61%
19:00 +18°C° 0 mm 4 mps 754 mmHg 68%
20:00 +18°C° 0 mm 4 mps 754 mmHg 70%
21:00 +17°C° 0 mm 3 mps 754 mmHg 72%
22:00 +17°C° 0 mm 3 mps 754 mmHg 74%
23:00 +17°C° 0 mm 3 mps 754 mmHg 74%
Show more

We Need Your Consent

Meteoprog and our Service Providers may store and access personal data such as cookies, device identifiers or other similar technologies on your device and process such data to personalise content and ads, as well as provide social media features and to analyse the traffic.

  • Store and/or access information on your device

    Cookies, device identifiers or other information can be stored or accessed on your device for the purposes indicated above.

  • Personalised ads and content, ad and content measurement, audience insights, and products development

    Ads and content can be personalised based on a profile. More data can be added to better personalise ads and content. Ad and content performance can be measured. Insights about the audience who saw the ads and content can be derived. Such data can be used to develop or improve user’s experience, systems and software.

By clicking ‘I Agree’ you will allow the use of indicated cookies, device identifiers, web beacons or other similar technologies. Your settings can be changed in the browser on your device.

For certain purposes, legitimate interests may be relied on, rather than consent. You can read more about this in our Privacy and Cookie Policy.